Regional Weather Roundup
Issued by NWS

Home | Current Version | Previous Version | Graphics & Text | Print | Product List | Glossary On
Versions: 1 2 3 4 5 6 7 8 9 10 11 12 13 14 15 16 17 18 19 20 21 22 23 24 25 26 27 28 29 30 31 32 33 34 35 36 37 38 39 40 41 42 43 44 45 46 47 48 49 50
000
ASUS43 KMKX 241200
RWRWI

WISCONSIN REGIONAL WEATHER ROUNDUP
NATIONAL WEATHER SERVICE MILWAUKEE/SULLIVAN WI
700 AM CDT MON JUL 24 2017

NOTE: "FAIR" INDICATES FEW OR NO CLOUDS BELOW 12,000 FEET WITH NO
SIGNIFICANT WEATHER AND/OR OBSTRUCTIONS TO VISIBILITY.

WIZ001-002-006>008-014>016-023>028-241300-
NORTHWEST WISCONSIN

CITY           SKY/WX    TMP DP  RH WIND       PRES   REMARKS
SUPERIOR ARPT  NOT AVBL
ASHLAND        FOG       55  54  96 S3        30.11R VSB 1/4
6HR MIN TEMP:  47; 6HR MAX TEMP:  56;

HAYWARD        FOG       52  52 100 CALM      30.10R VSB<1/4
6HR MIN TEMP:  50; 6HR MAX TEMP:  53;

SIREN          FOG       54  54  99 CALM      30.09R VSB 1/4
CUMBERLAND     FOG       52  52 100 CALM      30.09R VSB<1/4
RICE LAKE      LGT RAIN  53  53  98 CALM      30.10R VSB 1/2
6HR MIN TEMP:  49; 6HR MAX TEMP:  57;

CHETEK         PTSUNNY   55  55 100 E3        30.09R
LADYSMITH      CLOUDY    55  55  97 NE5       30.12R FOG
EAU CLAIRE     NOT AVBL
MENOMONIE      SUNNY     55  55  97 CALM      30.08R FOG
NEW RICHMOND   SUNNY     55  55  99 E3        30.07S
OSCEOLA        MOSUNNY   52  52 100 CALM      30.11R
$$

WIZ003>005-009-010-017-018-241300-
NORTH CENTRAL WISCONSIN

CITY           SKY/WX    TMP DP  RH WIND       PRES   REMARKS
MANITOWISH WTR FOG       51  51 100 CALM      30.11R VSB 1/2
ARBOR VITAE    CLOUDY    55  53  96 CALM      30.10R FOG
WOODRUFF       CLOUDY    55  53  96 CALM      30.10R FOG
RHINELANDER    CLOUDY    53  53 100 E5        30.12R
6HR MIN TEMP:  51; 6HR MAX TEMP:  53;

EAGLE RIVER    FOG       49  49 100 CALM      30.10S VSB<1/4
LAND O LAKES   FOG       49  49 100 CALM      30.13R VSB<1/4
PHILLIPS       CLOUDY    53  53 100 E3        30.11R
6HR MIN TEMP:  50; 6HR MAX TEMP:  53;

TOMAHAWK         N/A     52  51  97 E3        30.11R FOG
MEDFORD        CLOUDY    53  52  96 E6        30.10R
MERRILL        NOT AVBL
$$

WIZ029-030-035-036-043>047-241300-
CENTRAL WISCONSIN

CITY           SKY/WX    TMP DP  RH WIND       PRES   REMARKS
WAUSAU         CLOUDY    57  53  86 E3        30.09R
6HR MIN TEMP:  55; 6HR MAX TEMP:  58;

MOSINEE        CLOUDY    57  54  88 N3        30.11R
MARSHFIELD     CLOUDY    57  52  83 E7        30.08R
6HR MIN TEMP:  55; 6HR MAX TEMP:  59;

STEVENS POINT  CLOUDY    57  54  89 N3        30.09R
WAUPACA        MOSUNNY   62  56  81 N7        30.07R
WAUTOMA        CLOUDY    61  56  83 NE5       30.07R
6HR MIN TEMP:  60; 6HR MAX TEMP:  62;

WISC RAPIDS    CLOUDY    61  54  77 NE7       30.09R
6HR MIN TEMP:  59; 6HR MAX TEMP:  62;

CAMP DOUGLAS   CLOUDY    59  55  88 NE3       30.06R
$$

WIZ011>013-019>022-031-037>040-048>050-241300-
NORTHEAST WISCONSIN

CITY           SKY/WX    TMP DP  RH WIND       PRES   REMARKS
ANTIGO         PTSUNNY   53  52  96 NE5       30.10R
SHAWANO        CLOUDY    60  55  82 N9        30.07S
OCONTO         SUNNY     57  54  87 N7        30.07R
STURGEON BAY     N/A     61  57  87 MISG      30.07
6HR MIN TEMP:  58; 6HR MAX TEMP:  62;

GREEN BAY      CLOUDY    60  57  89 N9        30.06R
6HR MIN TEMP:  60; 6HR MAX TEMP:  62;

MANITOWOC      CLOUDY    63  55  77 N10       30.04R
APPLETON       PTSUNNY   61  54  77 NE8       30.05R
CLINTONVILLE   MOSUNNY   59  54  82 N7        30.07R
OSHKOSH        CLOUDY    62  57  83 N8        30.04R
6HR MIN TEMP:  60; 6HR MAX TEMP:  64; 6HR PCP:  0.01;

$$

WIZ032>034-041-042-053>061-241300-
SOUTHWEST WISCONSIN

CITY           SKY/WX    TMP DP  RH WIND       PRES   REMARKS
LA CROSSE      SUNNY     64  57  78 E3        30.06R
6HR MIN TEMP:  61; 6HR MAX TEMP:  67;

SPARTA         CLOUDY    57  55  92 NE6       30.07R
VIROQUA        MOSUNNY   56  56 100 CALM      30.06R
BOSCOBEL       MOSUNNY   61  57  87 CALM      30.05R
6HR MIN TEMP:  60; 6HR MAX TEMP:  65;

PRAIRIE DU CHI SUNNY     61  55  80 CALM      30.04R
PLATTEVILLE    SUNNY     59  59 100 NE5       30.03R
$$

WIZ056-057-062-063-064-067-068-241300-
SOUTH CENTRAL WISCONSIN

CITY           SKY/WX    TMP DP  RH WIND       PRES   REMARKS
REEDSBURG      CLOUDY    61  56  82 NE5       30.04S
BARABOO/DELLS  PTSUNNY   60  54  81 NE6       30.04S
LONE ROCK      NOT AVBL
MINERAL POINT  SUNNY     59  59 100 CALM      30.04R
MADISON        PTSUNNY   61  58  90 N5        30.03R
6HR MIN TEMP:  60; 6HR MAX TEMP:  63;

MIDDLETON      MOSUNNY   59  59 100 CALM      30.04R
WATERTOWN      CLOUDY    63  61  94 N6        30.02R
MONROE         SUNNY     59  59 100 NE7       30.03R
JANESVILLE     SUNNY     64  57  77 NE5       30.02R
$$

WIZ051-052-058>065-066-070>072-241300-
SOUTHEAST WISCONSIN

CITY           SKY/WX    TMP DP  RH WIND       PRES   REMARKS
MILWAUKEE      PTSUNNY   65  60  84 N13       30.01R
6HR MIN TEMP:  64; 6HR MAX TEMP:  66; 6HR PCP: TRACE;

WAUKESHA       CLOUDY    61  57  88 N7        30.04R
MILWAUKEE/TIMM CLOUDY    63  54  72 N9        30.03R
RACINE         CLOUDY    65  62  90 N12       30.03R
6HR MIN TEMP:  64; 6HR MAX TEMP:  66;

KENOSHA        PTSUNNY   65  60  84 N10G17    30.01R
6HR MIN TEMP:  62; 6HR MAX TEMP:  66;

FOND DU LAC    CLOUDY    64  53  67 NE12      30.05R
6HR MIN TEMP:  64; 6HR MAX TEMP:  65;

SHEBOYGAN      CLOUDY    63  58  83 N9        30.03R
6HR MIN TEMP:  62; 6HR MAX TEMP:  63; 6HR PCP: TRACE;

WEST BEND      CLOUDY    61  59  94 N6        30.03R
JUNEAU         CLOUDY    61  58  90 N3        30.05R
$$

LSZ147-162-241300-
LAKE SUPERIOR

STATION/POSITION TIME  TEMP    WIND        PRES    WAVE
                       AIR SEA DIR/SP/G            HT/PER
                 (UTC) (F)     (DEG/KT/KT) (MB)    (FT/S)
W MID LAKE BUOY  1050   48 48  230/  8/  8 1018.9R   1
DEVILS ISLAND    1100   54     180/  2/  2 1019.2R
SAXON HARBOR     1130   54     230/  3/  5 1019.0R
$$

LMZ867-665-643>646-241300-
LAKE MICHIGAN

STATION/POSITION TIME  TEMP    WIND        PRES    WAVE
                       AIR SEA DIR/SP/G            HT/PER
                 (UTC) (F)     (DEG/KT/KT) (MB)    (FT/S)
CHAMBERS ISLAND  1140   61     340/ 12/ 14 1017.3R
S GREEN BAY BUOY 1130   62 72  360/ 16/ 19 1017.5R
N MID LAKE BUOY  1050   61 65   10/ 16/ 19 1016.9R   3/ 5
NORTHPORT PIER   1140   61      10/ 12/ 15 1017.6R
KEWAUNEE LAKESHO 1130   61     350/  6/  9 1016.4R
SHEBOYGAN LAKESH 1100   64      10/ 19/ 23 1015.8R
PORT WASHINGTON  1130   64     350/  6/ 10 1017.3R
ATWATER BUOY     1039   65 67   10/ 16/ 19 1015.7R
MILWAUKEE LAKESH 1140   65     350/ 12/ 16   N/A
S MID LAKE BUOY  1050   67 70   10/ 17/ 21 1014.0R   5/ 7
KENOSHA   LAKESH 1100   65     350/ 16/ 21 1015.2
$$

TC  - TEMPERATURE IN CELSIUS
VSB - VISIBILITY IN STATUTE MILES
WCI - WIND CHILL INDEX
HX  - HEAT INDEX





USA.gov is the U.S. government's official web portal to all federal, state and local government web resources and services.